Location: Windsor
(43.2292°N, 89.3015°W)
Time: 11:41:44
(UTC+00:00)

Vanguard 2 Rocket - All Passes

Search period start: 28 May 2022 00:00
Search period end: 07 June 2022 00:00
Orbit: 553 x 3323 km, 32.9° (Epoch: 28 May)

Date Brightness Start Highest point End Pass type
(mag) Time Alt. Az. Time Alt. Az. Time Alt. Az.
28 May - 00:11:36 10° W 00:22:11 29° SW 00:29:00 10° SSE daylight
28 May - 16:19:45 10° SSW 16:35:04 29° SE 16:49:12 10° E daylight
28 May - 18:32:23 10° SW 18:51:13 49° SSE 19:05:27 10° E daylight
28 May - 20:49:25 10° WSW 21:07:30 56° S 21:18:55 10° ESE daylight
28 May - 23:08:21 10° W 23:22:03 40° SSW 23:30:25 10° SE daylight
29 May - 01:29:57 10° WSW 01:33:56 13° SW 01:37:16 10° SSW daylight
29 May - 15:20:55 10° S 15:33:34 21° SE 15:46:08 10° E daylight
29 May - 17:31:00 10° SW 17:49:12 44° SSE 18:04:33 10° E daylight
29 May - 19:46:42 10° WSW 20:05:50 57° S 20:18:57 10° ESE daylight
29 May - 22:05:08 10° W 22:21:24 49° SSW 22:31:20 10° SE daylight
30 May - 00:25:07 10° W 00:34:22 23° SW 00:40:49 10° S daylight
30 May - 14:24:21 10° SSE 14:32:23 14° SE 14:40:41 10° ESE daylight
30 May - 16:30:23 10° SSW 16:47:16 37° SSE 17:03:01 10° E daylight
30 May - 18:44:26 10° WSW 19:03:51 55° SSE 19:18:35 10° E daylight
30 May - 21:02:04 10° W 21:20:14 55° S 21:31:50 10° ESE daylight
30 May - 23:21:25 10° W 23:34:24 33° SW 23:42:43 10° SSE daylight
31 May - 15:30:41 10° SSW 15:45:33 29° SE 16:00:41 10° E daylight
31 May - 17:42:45 10° SW 18:01:40 51° SSE 18:17:45 10° E daylight
31 May - 19:59:13 10° WSW 20:18:33 59° S 20:31:55 10° ESE daylight
31 May - 22:18:00 10° W 22:33:54 43° SSW 22:43:55 10° SE daylight
01 Jun - 00:39:25 10° W 00:46:20 16° SW 00:51:42 10° SSW daylight
01 Jun - 14:32:11 10° S 14:44:12 22° SE 14:57:06 10° E daylight
01 Jun - 16:41:45 10° SW 16:59:31 45° SSE 17:16:23 10° E daylight
01 Jun - 18:56:47 10° WSW 19:16:30 59° S 19:31:35 10° ESE daylight
01 Jun - 21:14:48 10° W 21:32:50 52° SSW 21:44:35 10° SE daylight
01 Jun - 23:34:48 10° W 23:46:29 26° SW 23:54:32 10° S daylight
02 Jun - 13:36:04 10° SSE 13:43:15 14° SE 13:51:01 10° ESE daylight
02 Jun - 15:41:32 10° SSW 15:57:35 38° SSE 16:14:23 10° E daylight
02 Jun - 17:54:54 10° WSW 18:14:12 57° SSE 18:30:48 10° E daylight
02 Jun - 20:11:53 10° W 20:31:13 58° S 20:44:46 10° ESE daylight
02 Jun - 22:31:01 10° W 22:46:09 36° SW 22:56:10 10° SSE daylight
03 Jun - 14:42:12 10° SSW 14:56:01 29° SE 15:11:33 10° E daylight
03 Jun - 16:53:38 10° SW 17:11:52 52° SSE 17:29:31 10° E daylight
03 Jun - 19:09:22 10° WSW 19:29:09 60° S 19:44:30 10° ESE daylight
03 Jun - 21:27:39 10° W 21:45:15 46° SSW 21:57:05 10° SE daylight
03 Jun - 23:48:51 10° W 23:58:22 19° SW 00:05:32 10° S daylight
04 Jun - 13:44:04 10° S 13:54:55 21° SE 14:07:27 10° E daylight
04 Jun - 15:53:04 10° SW 16:09:43 45° SSE 16:27:41 10° E daylight
04 Jun - 18:07:21 10° WSW 18:26:47 60° S 18:43:45 10° ESE daylight
04 Jun - 20:24:40 10° W 20:43:45 54° SSW 20:57:27 10° SE daylight
04 Jun - 22:44:21 10° W 22:58:11 29° SW 23:07:55 10° SSE daylight
05 Jun - 12:48:40 10° SSE 12:54:18 12° SE 13:00:29 10° ESE daylight
05 Jun - 14:53:14 10° SSW 15:07:56 37° SE 15:25:11 10° E daylight
05 Jun - 17:05:54 10° WSW 17:24:19 58° SSE 17:42:30 10° E daylight
05 Jun - 19:22:05 10° W 19:41:46 59° S 19:57:17 10° ESE daylight
05 Jun - 21:40:40 10° W 21:57:27 39° SSW 22:09:14 10° SSE daylight
06 Jun - 00:04:41 10° WSW 00:10:03 13° SW 00:14:41 10° SSW daylight
06 Jun - 13:54:16 10° S 14:06:38 28° SE 14:21:50 10° E daylight
06 Jun - 16:05:05 10° SW 16:22:00 52° SSE 16:40:44 10° E daylight
06 Jun - 18:19:58 10° WSW 18:39:24 61° S 18:56:36 10° ESE daylight
06 Jun - 20:37:32 10° W 20:56:07 48° SSW 21:09:52 10° SE daylight
06 Jun - 22:58:16 10° W 23:09:59 22° SW 23:18:55 10° S daylight
